Temperature
24 22 22 23 23 24 24 24 24 24 24 24 23 22 22 21 21 21 21 21 20 21 21 21 21 20 20 20 20 20 20 19 19 19 19 19 19 19 19 19 18 18 18 18
22 23 23 24 24 24 24 24 23 23 24 24 22 22 22 21 21 21 21 21 21 21 21 21 21 20 20 20 20 20 20 20 19 19 19 19 19 19 19 19 19 18 18 18
24 24 25 25 24 24 24 23 23 23 23 23 23 22 22 22 22 21 21 21 21 21 21 21 21 20 20 20 20 20 20 20 20 19 19 19 19 19 19 19 19 18 18 18
23 24 25 25 24 24 23 24 24 24 23 21 23 21 22 21 20 21 21 21 21 21 21 21 21 21 21 21 20 20 20 20 20 19 19 19 19 19 19 19 19 18 18 18
24 24 25 25 25 24 24 24 24 23 22 21 21 21 20 20 20 20 21 21 21 21 21 22 22 21 21 21 21 20 20 20 20 20 20 19 19 19 19 19 19 19 18 18
23 24 25 25 25 25 24 23 22 19 19 21 21 21 20 19 20 20 20 21 21 22 22 22 22 21 21 21 21 20 20 20 20 20 20 19 19 19 19 19 19 19 19 18
23 24 24 24 24 24 23 21 21 21 19 20 20 20 20 20 20 20 20 21 22 22 22 22 22 21 21 21 21 21 21 20 20 20 20 20 19 19 19 19 19 19 19 19
22 22 24 24 24 23 22 21 21 21 20 19 20 20 20 21 21 21 21 21 21 22 21 22 22 22 21 21 21 21 21 20 20 20 20 20 19 19 19 19 19 19 19 18
21 22 23 24 24 23 22 20 20 18 19 19 19 19 20 21 20 20 20 20 20 21 21 21 21 22 22 21 21 21 21 21 20 20 20 20 19 19 19 19 19 18 18 18
21 22 23 23 23 23 22 19 17 18 19 20 20 20 20 20 20 19 19 19 20 21 21 21 21 21 21 21 21 21 21 21 20 20 20 20 20 19 19 19 19 19 18 18
21 21 22 22 23 22 21 20 17 16 17 19 19 20 20 19 19 19 19 20 20 20 21 21 21 21 21 21 21 21 20 20 20 20 20 20 20 19 19 19 19 19 18 18
19 18 19 21 21 21 22 20 18 19 18 17 18 19 20 19 19 19 19 20 20 20 21 21 21 21 21 21 21 21 20 20 20 20 19 19 19 19 19 19 19 18 18 18
19 18 19 20 21 21 21 19 18 16 15 15 18 20 19 18 18 19 19 19 20 20 20 21 21 20 20 20 20 20 20 20 20 19 19 19 19 19 19 18 18 18 18 18
18 17 18 20 20 20 21 20 18 17 17 17 18 19 19 18 18 18 19 19 19 20 20 20 20 20 20 20 20 20 20 20 19 19 19 19 19 18 18 18 18 18 18 17
17 17 18 18 19 20 20 21 19 19 18 18 18 18 18 17 17 18 18 18 18 19 19 20 20 20 20 20 19 19 19 19 19 19 19 19 18 18 18 18 18 18 17 17
15 17 18 19 19 20 20 20 20 19 19 18 18 18 17 17 17 17 18 18 18 18 19 19 19 19 19 19 19 19 19 18 18 18 18 18 18 17 17 17 17 17 17 17
14 16 17 17 18 20 19 19 19 19 18 18 18 18 17 16 16 16 17 17 18 18 19 19 19 19 19 19 19 19 18 18 18 18 17 17 17 17 17 16 16 16 16 16
14 14 13 15 18 19 18 18 18 18 17 17 17 16 16 16 16 17 17 17 17 17 18 18 18 18 19 18 18 18 18 18 18 17 17 17 17 17 16 16 16 16 16 16
13 13 13 14 16 17 18 18 18 18 17 17 16 16 16 16 16 16 17 17 17 17 17 18 18 18 18 18 18 18 17 17 17 17 17 17 16 16 16 16 16 16 16 16
12 12 13 13 16 16 17 18 18 17 17 17 16 15 15 16 15 15 17 17 17 17 17 17 17 17 17 17 17 17 17 17 16 16 16 16 16 16 16 16 16 15 15 16
14 13 13 13 15 15 16 17 18 17 17 17 16 16 16 15 15 16 16 16 17 17 17 17 17 17 17 17 16 16 16 16 16 16 16 15 15 15 15 15 15 15 15 15
13 13 13 12 14 15 16 16 16 16 16 16 16 16 16 16 16 16 16 16 16 16 16 16 16 16 16 16 16 16 16 16 15 15 15 15 15 15 15 15 15 15 15 15
12 12 11 12 13 14 15 15 16 17 16 16 17 17 16 16 16 16 16 16 16 15 15 15 16 16 16 16 16 15 15 15 15 15 15 15 15 15 15 14 14 14 14 14
12 11 11 12 13 14 15 16 17 17 17 17 17 17 16 16 15 15 15 15 15 15 15 15 15 15 15 15 15 15 15 15 15 15 15 14 14 14 14 14 14 14 14 14
12 11 11 12 13 14 15 16 16 16 16 16 16 16 16 16 15 15 15 15 15 15 15 15 15 15 15 15 15 15 15 14 14 14 14 14 14 14 14 14 14 13 13 13
11 11 12 12 13 13 14 16 16 16 16 16 16 15 15 15 15 15 15 15 15 15 15 15 15 14 15 15 15 15 14 14 14 14 14 14 14 14 14 13 13 13 13 13
Wind_Speed
3 4 3 6 7 5 4 2 4 4 2 2 2 3 4 6 7 6 6 7 8 8 6 6 6 6 5 5 5 4 4 4 3 2 2 2 2 2 2 3 5 6 7 7
5 3 7 4 4 4 3 1 3 4 1 2 1 2 3 5 7 7 8 8 9 6 5 6 6 6 6 6 6 5 5 4 4 3 2 2 2 1 2 2 3 6 7 7
6 6 3 4 3 3 3 5 5 3 2 3 2 4 2 2 2 3 4 6 7 9 9 8 8 8 8 8 8 7 6 5 4 4 3 2 2 1 1 1 2 4 6 7
4 4 2 2 3 5 5 6 5 3 2 2 1 2 6 3 3 5 6 5 6 7 9 9 9 9 9 10 8 7 6 6 5 5 5 4 3 3 3 2 2 2 4 5
4 2 2 3 5 6 6 2 3 2 3 1 2 2 7 2 4 6 6 7 7 7 9 10 11 10 9 9 8 7 6 5 5 6 6 5 4 3 2 1 2 2 2 4
4 2 3 4 2 4 3 6 6 6 5 1 3 3 6 4 5 5 5 6 6 7 8 8 8 7 7 8 7 7 6 5 5 5 6 6 6 4 3 3 3 3 2 3
4 4 2 2 2 3 5 6 4 4 3 4 2 2 7 6 5 5 5 5 5 5 7 8 8 8 8 9 9 8 8 7 6 5 5 6 6 5 5 4 4 4 3 3
1 5 4 2 5 4 4 8 7 5 5 4 2 4 6 5 4 2 1 2 2 2 4 6 8 9 9 8 8 8 8 7 6 6 6 5 5 5 4 4 4 4 4 4
5 6 5 2 1 7 5 3 6 7 3 0 4 6 7 3 4 4 3 2 1 2 3 4 5 6 6 7 7 8 7 6 6 7 6 5 5 5 5 5 4 4 4 4
7 3 5 4 4 5 5 7 6 6 5 3 4 4 5 5 3 3 1 0 1 1 2 3 3 4 4 5 5 5 6 7 6 5 5 5 5 5 4 4 5 5 5 4
5 4 4 4 2 1 3 5 6 5 5 6 4 7 5 5 4 3 3 1 1 1 2 3 3 3 3 3 3 4 4 4 4 5 4 4 4 4 4 4 5 5 5 4
4 5 1 4 4 2 3 5 6 5 3 4 4 7 3 3 3 3 2 1 0 1 2 3 4 3 3 2 3 4 4 4 5 5 4 4 3 3 3 4 4 3 4 4
5 6 2 5 5 4 3 2 4 6 5 5 5 7 2 1 0 1 0 0 0 2 2 2 3 3 3 2 2 2 3 4 4 4 4 3 3 3 4 4 3 2 3 3
5 5 6 8 7 3 0 1 3 5 4 4 7 7 4 2 2 2 1 1 0 1 2 3 2 2 2 2 2 2 2 2 3 3 3 4 4 4 4 4 3 3 2 2
5 4 3 3 3 3 3 3 4 4 6 7 8 7 7 5 4 3 2 1 1 1 1 2 2 1 2 1 1 1 2 2 2 3 4 5 4 3 2 3 3 2 3 3
4 4 2 1 1 2 2 2 4 4 4 4 3 6 4 1 1 1 1 2 2 2 1 1 1 1 2 2 2 1 1 2 2 3 4 3 2 2 2 3 3 3 3 3
2 5 4 3 3 1 3 5 5 4 3 5 6 6 2 2 2 2 2 1 2 3 2 2 3 3 2 2 2 2 1 1 2 2 2 2 2 3 3 3 3 3 4 3
6 5 4 2 2 5 7 2 3 3 2 3 3 3 4 3 2 1 1 1 1 2 2 3 2 2 1 1 1 2 2 1 1 1 1 2 2 2 2 2 3 3 3 4
5 7 4 4 4 4 5 2 3 3 3 2 3 3 2 2 3 3 2 1 1 2 2 3 2 2 1 1 2 2 2 2 1 1 2 2 2 2 2 2 3 3 3 3
5 5 5 4 4 7 7 3 1 3 3 3 4 4 3 3 0 4 3 2 2 1 1 1 1 0 0 1 1 2 1 1 2 3 3 2 2 2 2 3 3 2 2 3
3 3 3 4 4 6 5 3 1 4 7 3 3 3 3 3 4 3 2 3 2 2 2 1 0 0 1 0 1 1 1 3 4 3 2 1 1 2 2 2 2 2 2 2
4 3 3 4 3 7 3 1 5 6 1 2 2 3 3 2 1 1 1 1 2 2 2 1 0 1 2 0 1 1 2 3 2 1 1 2 2 2 1 1 2 2 2 2
3 5 5 6 6 5 4 4 4 3 2 2 2 2 3 2 2 1 1 1 1 1 2 2 1 1 2 1 2 2 4 3 1 1 2 2 2 2 1 2 2 2 2 2
2 2 2 2 5 4 4 3 1 1 2 2 2 3 3 3 2 1 2 2 1 1 2 2 1 1 3 2 1 2 3 2 1 2 2 2 2 2 2 2 2 2 3 2
3 1 1 3 5 4 4 3 1 1 1 0 1 2 3 3 2 2 2 3 3 2 2 2 2 2 3 3 2 2 2 1 1 2 2 2 2 2 2 2 2 3 3 4
4 5 5 6 7 4 6 4 2 1 1 2 1 1 1 3 3 3 3 3 3 2 2 2 1 2 3 2 3 3 2 1 1 2 2 2 2 2 2 2 2 2 3 3
Wind_Direction
91 93 193 215 198 187 178 196 261 270 252 144 206 249 233 194 186 187 193 197 203 207 194 176 177 174 172 180 181 181 172 167 149 148 159 165 186 185 193 205 204 195 193 188
53 254 231 200 176 164 173 230 279 308 26 145 206 294 251 203 201 198 198 201 205 198 184 182 177 175 180 192 196 187 184 176 172 176 172 168 159 177 195 206 204 199 195 192
187 233 198 160 163 167 218 201 223 228 9 39 66 337 305 273 211 209 210 205 201 199 197 193 190 190 191 197 200 198 191 184 180 170 143 124 91 66 109 183 204 201 198 199
226 253 181 177 210 168 251 224 197 189 114 305 89 275 290 273 273 237 229 213 211 209 196 193 195 195 201 204 199 190 186 183 178 168 166 169 180 198 215 201 200 198 197 200
245 222 181 220 227 178 219 188 156 155 139 34 19 159 289 315 277 260 238 222 214 203 194 194 196 196 197 195 191 186 180 183 179 175 180 181 193 203 200 185 188 201 204 206
250 246 194 215 229 176 150 69 57 52 72 343 266 173 280 259 244 262 238 226 218 202 195 194 188 180 184 186 185 180 176 189 183 181 184 189 194 195 193 207 208 213 216 215
329 316 284 156 66 42 88 89 41 8 14 253 273 186 252 265 255 243 240 224 213 200 192 188 177 176 183 188 187 183 182 190 186 183 193 199 201 198 201 211 213 214 218 222
186 291 273 209 178 183 167 140 157 192 213 266 319 232 256 281 294 283 244 187 157 177 190 191 186 182 185 186 185 185 188 193 187 192 203 203 201 203 212 212 211 215 220 225
177 256 296 292 194 139 134 155 155 134 137 156 281 288 302 330 2 16 45 77 115 176 179 176 171 171 175 183 193 188 186 192 194 200 200 202 204 207 215 216 216 221 226 228
157 232 298 309 61 40 124 138 99 121 147 222 283 273 256 289 300 331 356 245 233 190 142 139 148 160 170 182 189 188 192 196 194 194 203 211 211 216 219 217 225 228 230 226
134 164 313 16 80 182 85 85 97 108 144 158 225 264 229 217 227 227 255 266 227 199 152 141 142 144 155 163 172 193 200 192 189 194 202 211 214 216 217 224 231 230 232 223
131 126 239 278 283 267 142 146 141 147 202 172 181 257 282 213 211 200 241 310 300 127 131 138 145 142 141 158 174 191 194 196 198 194 194 207 205 200 216 231 239 234 233 230
130 114 78 346 339 5 68 103 118 119 119 154 175 255 310 21 58 204 183 1 100 131 118 116 132 146 163 179 186 187 193 203 198 182 183 195 202 204 220 230 229 235 239 245
116 113 163 195 217 211 226 175 137 120 144 198 218 236 282 298 282 293 306 299 119 151 143 135 148 161 168 183 192 191 205 201 192 185 189 207 218 217 219 216 208 209 218 237
101 126 175 216 227 197 213 225 187 188 190 194 225 219 241 238 226 235 246 226 123 126 136 155 170 189 175 167 191 200 203 198 190 187 203 220 225 220 215 212 211 206 215 231
69 128 124 274 259 216 226 254 210 215 203 211 214 247 252 226 149 172 196 177 179 198 210 206 187 209 213 198 203 206 206 197 181 192 216 225 211 203 214 223 214 211 221 228
95 126 127 228 289 54 242 233 210 211 212 185 208 227 188 153 183 209 197 187 222 225 229 229 224 221 226 224 196 198 205 182 171 186 210 217 209 211 219 231 230 227 229 228
139 121 133 152 113 219 242 257 188 179 229 218 204 191 178 186 198 216 154 165 268 289 281 269 259 250 242 234 217 169 145 147 188 210 214 220 217 224 228 219 230 240 235 228
149 139 130 137 185 259 287 248 171 173 262 232 171 149 129 104 55 355 3 19 281 267 289 278 254 239 227 214 194 149 140 142 174 232 230 230 218 221 226 226 235 235 231 234
72 99 123 138 169 225 238 254 201 119 264 229 166 164 159 104 84 279 313 335 331 339 346 326 293 95 184 243 152 137 163 181 228 236 239 240 225 222 231 237 241 243 236 239
55 63 131 165 206 252 255 280 110 178 235 209 176 176 168 185 211 242 286 305 317 339 347 349 29 323 270 292 116 149 233 251 255 248 235 231 235 229 234 245 244 239 234 234
178 158 177 156 190 250 269 121 181 216 229 172 184 183 179 204 224 234 252 310 335 336 344 340 153 306 309 286 149 210 270 270 273 255 252 255 259 262 272 251 259 246 225 223
194 192 187 191 216 259 273 241 246 185 177 210 206 206 171 187 246 270 264 289 312 319 317 304 240 291 301 272 200 229 268 279 276 253 263 273 275 271 263 240 250 263 242 234
278 152 154 255 277 288 293 294 301 211 202 215 195 181 171 186 215 262 281 281 285 289 295 295 279 284 288 284 276 258 273 272 263 266 268 264 259 269 272 260 244 239 237 230
238 171 161 264 279 318 318 297 278 23 76 123 159 171 176 168 199 213 245 268 270 264 273 272 261 274 285 297 294 287 281 265 262 271 276 281 271 252 246 249 245 243 249 239
216 192 190 232 235 216 256 267 240 176 190 192 182 235 235 195 206 216 234 250 254 262 267 264 259 273 283 292 296 301 311 279 255 273 268 264 264 258 246 243 287 285 253 264
Height
1481 1488 1494 1491 1490 1491 1494 1498 1501 1496 1489 1493 1495 1495 1492 1491 1492 1494 1495 1496 1498 1499 1502 1504 1507 1509 1511 1513 1514 1516 1517 1518 1520 1521 1523 1524 1525 1527 1528 1530 1531 1533 1536 1538
1487 1491 1484 1483 1485 1489 1492 1499 1500 1495 1489 1492 1497 1496 1491 1490 1491 1492 1493 1494 1496 1499 1501 1503 1505 1507 1509 1511 1513 1514 1516 1518 1520 1521 1523 1524 1525 1526 1528 1529 1530 1532 1535 1537
1487 1484 1479 1482 1486 1491 1493 1497 1497 1498 1494 1493 1496 1500 1495 1490 1491 1492 1492 1493 1494 1496 1498 1500 1502 1504 1507 1509 1511 1513 1515 1517 1519 1521 1523 1524 1525 1526 1527 1528 1529 1531 1534 1536
1483 1479 1479 1482 1485 1488 1496 1487 1489 1493 1502 1508 1502 1517 1500 1493 1492 1490 1490 1490 1491 1493 1494 1497 1499 1501 1503 1506 1509 1511 1514 1516 1518 1520 1521 1523 1524 1524 1526 1527 1528 1530 1532 1535
1483 1478 1479 1483 1482 1482 1486 1482 1487 1492 1501 1510 1508 1516 1508 1495 1494 1489 1487 1487 1488 1489 1491 1493 1495 1498 1501 1503 1506 1509 1512 1514 1516 1518 1520 1521 1522 1524 1525 1526 1528 1529 1532 1533
1478 1475 1475 1476 1475 1477 1480 1487 1493 1502 1510 1522 1513 1518 1514 1501 1492 1486 1484 1484 1485 1486 1488 1490 1493 1497 1499 1502 1504 1506 1510 1512 1515 1516 1518 1519 1520 1522 1523 1524 1526 1528 1530 1531
1483 1477 1474 1473 1479 1480 1484 1501 1520 1522 1532 1527 1512 1516 1510 1490 1485 1483 1482 1481 1481 1483 1486 1488 1490 1493 1496 1500 1502 1505 1508 1510 1512 1514 1516 1518 1519 1520 1521 1523 1524 1526 1527 1529
1495 1494 1477 1473 1477 1483 1487 1496 1519 1529 1533 1527 1515 1516 1500 1485 1482 1480 1479 1479 1480 1482 1484 1486 1488 1491 1494 1497 1500 1503 1505 1507 1509 1512 1514 1516 1517 1519 1520 1521 1522 1524 1524 1526
1495 1493 1474 1471 1471 1476 1488 1495 1496 1515 1522 1528 1521 1509 1494 1483 1481 1480 1479 1479 1480 1481 1483 1485 1487 1490 1493 1495 1497 1500 1502 1504 1507 1509 1511 1513 1515 1516 1517 1519 1521 1522 1523 1524
1482 1489 1478 1474 1472 1476 1480 1489 1504 1516 1529 1532 1521 1513 1505 1490 1486 1482 1481 1480 1479 1481 1483 1484 1486 1489 1491 1493 1496 1499 1500 1502 1504 1507 1509 1510 1512 1514 1515 1516 1518 1519 1520 1521
1477 1488 1486 1480 1482 1484 1486 1493 1503 1514 1516 1527 1529 1516 1487 1486 1483 1482 1480 1480 1480 1481 1482 1483 1485 1488 1490 1492 1494 1496 1498 1500 1502 1504 1506 1507 1509 1511 1512 1513 1514 1515 1517 1518
1479 1489 1496 1488 1479 1478 1479 1487 1497 1508 1516 1519 1521 1511 1481 1480 1479 1480 1480 1480 1480 1481 1482 1483 1485 1487 1489 1490 1492 1494 1496 1498 1499 1501 1503 1504 1506 1507 1508 1509 1511 1512 1513 1514
1478 1490 1502 1499 1493 1484 1484 1486 1491 1501 1512 1520 1519 1505 1480 1479 1479 1479 1479 1479 1480 1480 1482 1483 1484 1485 1487 1489 1490 1492 1493 1495 1497 1499 1500 1502 1503 1504 1505 1506 1507 1508 1509 1510
1472 1488 1496 1502 1497 1488 1487 1486 1490 1497 1509 1513 1507 1496 1484 1481 1480 1479 1479 1479 1480 1480 1481 1482 1483 1484 1486 1487 1488 1490 1491 1493 1494 1496 1497 1498 1499 1500 1501 1502 1503 1504 1505 1506
1472 1487 1487 1486 1483 1483 1483 1484 1486 1490 1494 1499 1494 1491 1484 1481 1480 1479 1480 1480 1480 1480 1480 1481 1482 1483 1484 1486 1487 1489 1490 1491 1492 1493 1494 1495 1496 1497 1498 1498 1499 1499 1501 1501
1476 1485 1486 1487 1483 1482 1484 1482 1482 1484 1486 1488 1487 1487 1479 1479 1479 1479 1479 1479 1479 1479 1480 1480 1481 1482 1483 1484 1486 1487 1488 1489 1490 1491 1492 1493 1493 1494 1494 1494 1495 1496 1496 1497
1481 1485 1492 1495 1487 1483 1490 1482 1481 1481 1480 1482 1485 1481 1477 1478 1478 1478 1478 1479 1478 1479 1479 1480 1480 1481 1482 1483 1484 1485 1486 1487 1488 1488 1489 1490 1490 1490 1491 1491 1492 1492 1493 1493
1480 1487 1495 1498 1493 1499 1487 1475 1475 1478 1477 1476 1476 1476 1476 1476 1478 1478 1478 1478 1479 1479 1480 1480 1480 1480 1481 1482 1483 1484 1484 1485 1485 1486 1486 1487 1487 1487 1487 1488 1488 1489 1489 1490
1475 1484 1495 1501 1500 1492 1482 1475 1475 1477 1478 1474 1474 1475 1476 1476 1476 1477 1477 1478 1478 1479 1479 1480 1479 1479 1480 1480 1481 1481 1481 1482 1482 1482 1483 1483 1484 1484 1484 1484 1485 1486 1486 1486
1477 1480 1492 1499 1497 1498 1482 1472 1470 1475 1480 1473 1472 1473 1475 1475 1480 1478 1476 1476 1477 1477 1478 1478 1478 1478 1478 1478 1479 1479 1479 1479 1479 1479 1480 1480 1481 1481 1481 1481 1482 1482 1483 1483
1483 1487 1492 1495 1494 1487 1473 1470 1470 1483 1478 1470 1470 1472 1473 1474 1476 1476 1475 1475 1475 1476 1476 1476 1476 1476 1476 1476 1477 1477 1477 1477 1477 1477 1477 1478 1478 1478 1478 1478 1478 1478 1479 1479
1484 1488 1491 1494 1494 1488 1469 1469 1472 1471 1467 1468 1469 1470 1471 1472 1473 1473 1474 1474 1474 1474 1474 1475 1475 1474 1474 1475 1475 1474 1474 1475 1475 1475 1475 1475 1475 1475 1475 1475 1475 1475 1475 1474
1482 1482 1483 1484 1483 1472 1469 1468 1467 1466 1466 1467 1468 1469 1470 1471 1472 1473 1473 1473 1473 1473 1473 1473 1473 1473 1473 1473 1473 1472 1472 1473 1473 1472 1472 1472 1472 1472 1472 1472 1471 1471 1471 1471
1477 1476 1479 1478 1473 1469 1467 1466 1465 1466 1466 1467 1468 1468 1469 1470 1471 1472 1472 1472 1471 1472 1472 1472 1471 1471 1471 1470 1470 1470 1471 1470 1470 1469 1469 1469 1468 1468 1468 1468 1468 1468 1467 1467
1476 1475 1477 1476 1471 1468 1466 1465 1465 1466 1466 1467 1468 1468 1468 1469 1469 1469 1470 1471 1470 1469 1470 1470 1469 1468 1468 1468 1468 1468 1468 1468 1467 1466 1466 1466 1466 1465 1465 1465 1465 1464 1464 1464
1471 1473 1474 1473 1468 1468 1466 1465 1466 1466 1466 1467 1467 1467 1467 1468 1468 1468 1468 1468 1468 1468 1468 1467 1467 1467 1467 1466 1466 1465 1465 1465 1464 1464 1464 1463 1463 1462 1462 1461 1461 1461 1462 1462